Meteo pe oră la Dacha

Astăzi, 11 Aprilie, Duminică

Timp Temperatura Precipitaţii Vânt Presiune Umiditate
00:00 +7°C° 0 mm 3 m/s 752 mmHg 61%
01:00 +5°C° 0 mm 4 m/s 752 mmHg 62%
02:00 +5°C° 0 mm 4 m/s 752 mmHg 62%
03:00 +5°C° 0 mm 4 m/s 752 mmHg 63%
04:00 +5°C° 0 mm 4 m/s 752 mmHg 63%
05:00 +5°C° 0 mm 5 m/s 752 mmHg 63%
06:00 +3°C° 0 mm 5 m/s 752 mmHg 62%
07:00 +4°C° 0 mm 6 m/s 753 mmHg 59%
08:00 +5°C° 0 mm 6 m/s 753 mmHg 56%
09:00 +6°C° 0 mm 7 m/s 753 mmHg 52%
10:00 +9°C° 0 mm 7 m/s 752 mmHg 50%
11:00 +10°C° 0 mm 8 m/s 752 mmHg 48%
12:00 +11°C° 0 mm 8 m/s 752 mmHg 45%
13:00 +12°C° 0 mm 8 m/s 752 mmHg 46%
14:00 +12°C° 0 mm 8 m/s 752 mmHg 47%
15:00 +14°C° 0 mm 7 m/s 752 mmHg 48%
16:00 +12°C° 0 mm 7 m/s 752 mmHg 51%
17:00 +11°C° 0 mm 7 m/s 751 mmHg 55%
18:00 +11°C° 0 mm 6 m/s 751 mmHg 58%
19:00 +10°C° 0 mm 6 m/s 751 mmHg 63%
20:00 +9°C° 0 mm 6 m/s 751 mmHg 68%
21:00 +9°C° 0 mm 5 m/s 751 mmHg 73%
22:00 +9°C° 0 mm 5 m/s 751 mmHg 76%
23:00 +8°C° 0 mm 5 m/s 751 mmHg 80%

Mâine, 12 Aprilie, Luni

Timp Temperatura Precipitaţii Vânt Presiune Umiditate
00:00 +8°C° 0 mm 4 m/s 751 mmHg 83%
01:00 +8°C° 0 mm 4 m/s 750 mmHg 86%
02:00 +7°C° 0 mm 4 m/s 750 mmHg 89%
03:00 +8°C° 0 mm 3 m/s 750 mmHg 92%
04:00 +8°C° 0 mm 3 m/s 750 mmHg 93%
05:00 +8°C° 0 mm 3 m/s 750 mmHg 95%
06:00 +8°C° 0 mm 3 m/s 749 mmHg 96%
07:00 +8°C° 0 mm 4 m/s 749 mmHg 91%
08:00 +10°C° 0 mm 4 m/s 749 mmHg 86%
09:00 +11°C° 0 mm 4 m/s 749 mmHg 81%
10:00 +13°C° 0 mm 3 m/s 749 mmHg 72%
11:00 +16°C° 0 mm 3 m/s 749 mmHg 62%
12:00 +18°C° 0 mm 3 m/s 749 mmHg 53%
13:00 +19°C° 0 mm 3 m/s 749 mmHg 50%
14:00 +19°C° 0 mm 4 m/s 749 mmHg 48%
15:00 +20°C° 0 mm 5 m/s 749 mmHg 45%
16:00 +19°C° 0 mm 5 m/s 749 mmHg 49%
17:00 +18°C° 0 mm 4 m/s 749 mmHg 53%
18:00 +17°C° 0 mm 4 m/s 749 mmHg 57%
19:00 +16°C° 0 mm 3 m/s 750 mmHg 63%
20:00 +14°C° 0 mm 3 m/s 750 mmHg 68%
21:00 +14°C° 0 mm 2 m/s 750 mmHg 73%
22:00 +14°C° 0 mm 2 m/s 750 mmHg 75%
23:00 +14°C° 0 mm 1 m/s 750 mmHg 77%

Poimâine, 13 Aprilie, Marţi

Timp Temperatura Precipitaţii Vânt Presiune Umiditate
00:00 +13°C° 0 mm 1 m/s 750 mmHg 80%
01:00 +13°C° 0 mm 1 m/s 750 mmHg 81%
02:00 +13°C° 0 mm 2 m/s 750 mmHg 83%
03:00 +12°C° 0 mm 2 m/s 750 mmHg 85%
04:00 +12°C° 0 mm 2 m/s 750 mmHg 86%
05:00 +12°C° 0 mm 1 m/s 750 mmHg 87%
06:00 +11°C° 0 mm 1 m/s 750 mmHg 89%
07:00 +12°C° 0 mm 1 m/s 750 mmHg 85%
08:00 +13°C° 0 mm 1 m/s 750 mmHg 82%
09:00 +13°C° 0 mm 1 m/s 750 mmHg 78%
10:00 +14°C° 0 mm 1 m/s 750 mmHg 76%
11:00 +14°C° 0 mm 2 m/s 750 mmHg 74%
12:00 +14°C° 0 mm 2 m/s 750 mmHg 72%
13:00 +15°C° 0 mm 2 m/s 750 mmHg 70%
14:00 +15°C° 0 mm 2 m/s 750 mmHg 68%
15:00 +16°C° 0 mm 1 m/s 750 mmHg 65%
16:00 +15°C° 0 mm 1 m/s 750 mmHg 66%
17:00 +15°C° 0 mm 1 m/s 750 mmHg 67%
18:00 +15°C° 0 mm 1 m/s 750 mmHg 67%
19:00 +15°C° 0 mm 1 m/s 750 mmHg 69%
20:00 +14°C° 0 mm 1 m/s 750 mmHg 71%
21:00 +14°C° 0 mm 1 m/s 750 mmHg 73%
22:00 +13°C° 0 mm 2 m/s 750 mmHg 74%
23:00 +13°C° 0 mm 2 m/s 750 mmHg 75%

14 Aprilie, Miercuri

Timp Temperatura Precipitaţii Vânt Presiune Umiditate
00:00 +12°C° 0 mm 2 m/s 750 mmHg 75%
01:00 +12°C° 0 mm 2 m/s 749 mmHg 76%
02:00 +12°C° 0 mm 2 m/s 749 mmHg 76%
03:00 +11°C° 0 mm 1 m/s 749 mmHg 76%
04:00 +11°C° 0 mm 1 m/s 749 mmHg 76%
05:00 +11°C° 0 mm 1 m/s 749 mmHg 77%
06:00 +11°C° 0 mm 1 m/s 749 mmHg 77%
07:00 +12°C° 0 mm 1 m/s 749 mmHg 72%
08:00 +12°C° 0 mm 1 m/s 749 mmHg 68%
09:00 +13°C° 0 mm 2 m/s 749 mmHg 63%
10:00 +15°C° 0 mm 2 m/s 749 mmHg 58%
11:00 +16°C° 0 mm 2 m/s 749 mmHg 54%
12:00 +17°C° 0 mm 2 m/s 749 mmHg 49%
13:00 +18°C° 0 mm 2 m/s 749 mmHg 48%
14:00 +18°C° 0 mm 2 m/s 748 mmHg 47%
15:00 +19°C° 0 mm 2 m/s 748 mmHg 46%
16:00 +18°C° 0 mm 2 m/s 748 mmHg 48%
17:00 +18°C° 0 mm 2 m/s 748 mmHg 51%
18:00 +17°C° 0 mm 2 m/s 748 mmHg 53%
19:00 +16°C° 0 mm 2 m/s 748 mmHg 58%
20:00 +15°C° 0 mm 2 m/s 748 mmHg 63%
21:00 +14°C° 0 mm 2 m/s 748 mmHg 68%
22:00 +13°C° 0 mm 2 m/s 748 mmHg 70%
23:00 +12°C° 0 mm 2 m/s 748 mmHg 72%

15 Aprilie, Joi

Timp Temperatura Precipitaţii Vânt Presiune Umiditate
00:00 +12°C° 0 mm 2 m/s 747 mmHg 74%
01:00 +11°C° 0 mm 1 m/s 747 mmHg 74%
02:00 +11°C° 0 mm 1 m/s 747 mmHg 75%
03:00 +10°C° 0 mm 1 m/s 747 mmHg 76%
04:00 +10°C° 0 mm 1 m/s 747 mmHg 76%
05:00 +10°C° 0 mm 1 m/s 747 mmHg 77%
06:00 +10°C° 0 mm 1 m/s 747 mmHg 78%
07:00 +11°C° 0 mm 1 m/s 747 mmHg 71%
08:00 +13°C° 0 mm 2 m/s 747 mmHg 64%
09:00 +14°C° 0 mm 2 m/s 747 mmHg 56%
10:00 +15°C° 0 mm 2 m/s 747 mmHg 50%
11:00 +16°C° 0 mm 2 m/s 746 mmHg 44%
12:00 +18°C° 0 mm 3 m/s 746 mmHg 38%
13:00 +18°C° 0 mm 3 m/s 746 mmHg 39%
14:00 +18°C° 0 mm 4 m/s 746 mmHg 39%
15:00 +18°C° 0 mm 4 m/s 745 mmHg 39%
16:00 +18°C° 0 mm 4 m/s 745 mmHg 43%
17:00 +17°C° 0 mm 4 m/s 745 mmHg 47%
18:00 +15°C° 0 mm 5 m/s 745 mmHg 52%
19:00 +14°C° 0 mm 4 m/s 745 mmHg 56%
20:00 +13°C° 0 mm 3 m/s 745 mmHg 61%
21:00 +13°C° 0 mm 2 m/s 745 mmHg 66%
22:00 +12°C° 0 mm 2 m/s 745 mmHg 68%
23:00 +12°C° 0 mm 2 m/s 745 mmHg 71%

16 Aprilie, Vineri

Timp Temperatura Precipitaţii Vânt Presiune Umiditate
00:00 +10°C° 0 mm 2 m/s 744 mmHg 73%
01:00 +9°C° 0 mm 2 m/s 744 mmHg 78%
02:00 +8°C° 0 mm 2 m/s 744 mmHg 82%
03:00 +8°C° 0 mm 3 m/s 744 mmHg 86%
04:00 +8°C° 0 mm 2 m/s 744 mmHg 88%
05:00 +7°C° 0 mm 2 m/s 744 mmHg 91%
06:00 +7°C° 0 mm 2 m/s 743 mmHg 93%
07:00 +8°C° 0 mm 2 m/s 743 mmHg 85%
08:00 +9°C° 0 mm 2 m/s 743 mmHg 77%
09:00 +12°C° 0 mm 2 m/s 743 mmHg 68%
10:00 +11°C° 0 mm 3 m/s 743 mmHg 64%
11:00 +12°C° 0 mm 3 m/s 742 mmHg 60%
12:00 +12°C° 0 mm 4 m/s 742 mmHg 56%
13:00 +12°C° 0.4 mm 4 m/s 742 mmHg 61%
14:00 +11°C° 0.4 mm 3 m/s 742 mmHg 65%
15:00 +10°C° 0.4 mm 3 m/s 742 mmHg 70%
16:00 +9°C° 1.2 mm 3 m/s 741 mmHg 75%
17:00 +8°C° 1.2 mm 4 m/s 741 mmHg 80%
18:00 +7°C° 1.2 mm 4 m/s 741 mmHg 85%
19:00 +7°C° 1.8 mm 4 m/s 741 mmHg 86%
20:00 +7°C° 1.8 mm 5 m/s 741 mmHg 86%
21:00 +6°C° 1.8 mm 5 m/s 741 mmHg 86%
22:00 +6°C° 1.4 mm 5 m/s 741 mmHg 88%
23:00 +5°C° 1.4 mm 5 m/s 741 mmHg 90%
Arată mai mult

Formular de consimțământ

Meteoprog și furnizorii noștri de servicii pot stoca și accesa date personale, precum cookies, identificatori de dispozitiv sau alte tehnologii similare pe dispozitivul dumneavoastră și procesa astfel de date pentru a personaliza conținutul și reclamele, dar și pentru a oferi caracteristici de social media și pentru a analiza traficul.

  • Stocarea și/sau accesarea informațiilor pe dispozitivul dumneavoastră

    Cookies, identificatori de dispozitiv sau alte informații pot fi stocate sau accesate pe dispozitiv în scopurile indicate mai sus.

  • Reclame și conținut personalizat, evaluarea reclamelor și a conținutului, informații despre audiențe și dezvoltarea produselor

    Reclamele și conținutul pot fi personalizate pe baza unui profil. Pot fi adăugate date suplimentare pentru a personaliza mai bine reclamele și conținutul. Performanța reclamelor și conținutului poate fi măsurată. Pot fi obținute informații despre utilizatorii care au văzut reclamele și conținutul. Aceste date pot fi utilizate pentru a dezvolta sau îmbunătăți experiența utilizatorilor, sistemele și software-ul.

Dând clic pe ‘Sunt de acord’, permiteți utilizarea cookie-urilor menționate, a identificatorilor de dispozitiv, balizelor web sau altor tehnologii similare. Setările pot fi modificate din browser-ul dispozitivului dumneavoastră.

În anumite scopuri, interesele legitime pot prima asupra consimțământului. Puteți citi mai multe informații în acest sens în Politica privind Confidențialitatea Datelor și Cookie.